Location: Stoke Bliss
(52.2667°N, 2.5167°W)
Time: 14:32:15
(UTC+00:00)

Envisat - Pass Details

Date: 03 December 2021
Orbit: 764 x 766 km, 98.2° (Epoch: 28 January)

Event Time Altitude Azimuth Distance (km) Brightness Sun altitude
Rises 06:06:25 0° 10° (N) 3,248 6.2 -16.4°
Reaches altitude 10° 06:08:48 10° 5° (N) 2,318 5.4 -16.0°
Maximum altitude 06:13:40 46° 294° (WNW) 1,027 3.2 -15.3°
Drops below altitude 10° 06:18:29 10° 222° (SW) 2,301 5.2 -14.6°
Sets 06:20:51 0° 216° (SW) 3,223 6.0 -14.3°
